CW7533 Weather Reports


time (UTC)temp
C
wind
direction
speed
KPH
gust
KPH
rain 1hr
cm
rain 24hr
cm
rain mn
cm
humidity
%
barometer
mb
20260505062020 12 0.0 0.0 0.00 0.00 0.00 79 996.4
20260505061020 12 0.0 0.0 0.00 0.00 0.00 79 996.6
20260505060039 12 0.0 0.0 0.00 0.00 0.00 79 996.6
20260505055020 13 0.0 0.0 0.00 0.00 0.00 79 996.7
20260505054020 13 0.0 0.0 0.00 0.00 0.00 80 996.8
20260505053020 12 0.0 0.0 0.00 0.00 0.00 81 996.8
20260505052020 12 0.0 0.0 0.00 0.00 0.00 81 997.0
20260505051020 12 0.0 3.2 0.00 0.00 0.00 82 997.2
20260505041020 12 0.0 0.0 0.00 0.00 0.00 83 997.6
20260505040020 12 0.0 0.0 0.00 0.00 0.00 83 997.6
20260505035100 12 0.0 0.0 0.00 0.00 0.00 83 997.7
20260505034019 12 0.0 0.0 0.00 0.00 0.00 83 997.7
20260505033021 12 0.0 0.0 0.00 0.00 0.00 82 997.7
20260505032019 13 0.0 0.0 0.00 0.00 0.00 82 997.8
20260505031020 13 0.0 0.0 0.00 0.00 0.00 82 997.8
20260505030020 13 0.0 0.0 0.00 0.00 0.00 82 997.8
20260505025019 13 0.0 0.0 0.00 0.00 0.00 82 997.9
20260505024021 13 0.0 0.0 0.00 0.00 0.00 81 998.0
20260505023019 13 0.0 0.0 0.00 0.00 0.00 81 998.0
20260505022019 13 0.0 0.0 0.00 0.00 0.00 81 998.1
20260505021039 13 0.0 0.0 0.00 0.00 0.00 81 998.3
20260505020019 13 0.0 0.0 0.00 0.00 0.00 81 998.3
20260505015040 13 0.0 0.0 0.00 0.00 0.00 81 998.3
20260505014019 13 0.0 0.0 0.00 0.00 0.00 81 998.3
20260505013019 14 0.0 0.0 0.00 0.00 0.00 81 998.4
20260505012019 14 0.0 0.0 0.00 0.00 0.00 80 998.5
20260505011019 14 0.0 0.0 0.00 0.00 0.00 80 998.5
20260505010019 14 0.0 0.0 0.00 0.00 0.00 80 998.5
20260505005019 15 0.0 0.0 0.00 0.00 0.00 79 998.5
20260505004019 15 0.0 0.0 0.00 0.00 0.00 79 998.4
20260505003019 15 0.0 0.0 0.00 0.00 0.00 79 998.4
20260505002039 15 270 1.6 9.7 0.00 0.00 0.00 79 998.3
20260505001059 15 0.0 8.0 0.00 0.00 0.00 80 998.3
20260505000019 15 270 1.6 12.9 0.00 0.00 0.00 80 998.3
20260504235059 15 270 1.6 9.7 0.00 0.00 0.00 80 998.3
20260504234019 15 0.0 9.7 0.00 0.00 0.00 80 998.2
20260504233019 15 0.0 6.4 0.00 0.00 0.00 80 998.2
20260504232019 15 0.0 0.0 0.00 0.00 0.00 80 998.1
20260504231019 15 0.0 0.0 0.00 0.00 0.00 80 998.3
20260504230019 15 0.0 0.0 0.00 0.00 0.00 79 998.3
20260504225019 15 270 1.6 9.7 0.00 0.00 0.00 79 998.3
20260504224019 15 270 4.8 16.1 0.00 0.00 0.00 78 998.3
20260504223019 16 270 1.6 8.0 0.00 0.00 0.00 78 998.3
20260504222018 16 270 3.2 11.3 0.00 0.00 0.00 77 998.3
20260504221019 16 270 1.6 8.0 0.00 0.00 0.00 74 998.3
20260504220018 16 0.0 0.0 0.00 0.00 0.00 74 998.3
20260504215020 17 0.0 0.0 0.00 0.00 0.00 73 998.3
20260504214019 17 0.0 4.8 0.00 0.00 0.00 71 998.3
20260504213019 18 270 3.2 14.5 0.00 0.00 0.00 69 998.3
20260504212041 18 270 1.6 6.4 0.00 0.00 0.00 69 998.3
20260504211021 18 270 4.8 22.5 0.00 0.00 0.00 69 998.3
20260504210019 18 270 1.6 12.9 0.00 0.00 0.00 70 998.3
20260504205040 17 293 8.0 32.2 0.00 0.00 0.00 70 998.4
20260504204020 17 293 3.2 17.7 0.00 0.00 0.00 70 998.5
20260504203020 17 293 3.2 14.5 0.00 0.00 0.00 71 998.5
20260504202019 17 293 1.6 6.4 0.00 0.00 0.00 72 998.7
20260504201018 17 293 4.8 14.5 0.00 0.00 0.00 72 998.8
20260504200020 17 270 6.4 16.1 0.00 0.00 0.00 73 998.8
20260504195020 17 293 1.6 12.9 0.00 0.00 0.00 75 998.9
20260504194020 16 0.0 0.0 0.00 0.00 0.00 77 999.2
20260504193039 16 0.0 0.0 0.00 0.00 0.00 78 999.2
20260504192019 16 248 1.6 22.5 0.00 0.00 0.00 78 999.4
20260504191019 15 248 1.6 20.9 0.00 0.00 0.00 79 999.6
20260504190019 15 270 1.6 9.7 0.00 0.00 0.00 82 999.6
20260504185018 14 270 1.6 12.9 0.00 0.00 0.00 82 999.8
20260504184019 13 293 6.4 25.7 0.00 0.00 0.00 83 999.9
20260504183019 13 0.0 6.4 0.00 0.00 0.00 84 999.9
20260504182019 13 293 4.8 14.5 0.00 0.00 0.00 83 1000.0
20260504181039 13 293 4.8 12.9 0.00 0.00 0.00 83 1000.0
20260504180019 13 293 4.8 14.5 0.00 0.00 0.00 84 1000.0
20260504175019 13 293 3.2 12.9 0.00 0.00 0.00 84 1000.2
20260504174019 13 293 8.0 19.3 0.00 0.00 0.00 86 1000.2
20260504173020 13 293 6.4 22.5 0.00 0.00 0.00 87 1000.2
20260504172039 13 293 4.8 14.5 0.00 0.00 0.00 86 1000.3
20260504171019 13 293 3.2 17.7 0.00 0.00 0.00 88 1000.3
20260504151019 10 293 4.8 17.7 0.00 0.00 0.00 100 1000.3
20260504141020 6 0.0 0.0 0.00 0.00 0.00 100 1000.4
20260504081020 8 248 11.3 25.7 0.00 0.00 0.00 80 1000.4